Location: Sebastopol
(38.4021°N, 122.8239°W)
Time: 15:40:52
(UTC+00:00)

Cosmos 1023 Rocket - Pass Details

Date: 29 October 2020
Orbit: 736 x 773 km, 74.1° (Epoch: 30 November)

Event Time Altitude Azimuth Distance (km) Brightness Sun altitude
Rises 13:34:30 0° 198° (SSW) 3,158 7.6 -12.4°
Reaches altitude 10° 13:36:50 10° 199° (SSW) 2,237 6.8 -12.0°
Maximum altitude 13:41:54 85° 288° (WNW) 744 4.4 -11.0°
Drops below altitude 10° 13:47:00 10° 17° (NNE) 2,247 7.0 -10.0°
Sets 13:49:21 0° 18° (NNE) 3,175 7.8 -9.6°
